HOHE-WE Weather Reports


time (UTC)temp
C
wind
direction
speed
KPH
gust
KPH
rain 1hr
cm
rain 24hr
cm
rain mn
cm
humidity
%
barometer
mb
20260508124504 9 52 3.2 11.3 0.00 0.36 0.10 87 1015.1
20260508123811 9 54 3.2 9.7 0.00 0.36 0.10 87 1015.3
20260508122703 10 64 3.2 11.3 0.00 0.38 0.10 87 1015.1
20260508121803 9 53 3.2 12.9 0.00 0.38 0.10 86 1015.0
20260508121110 9 63 3.2 9.7 0.00 0.43 0.10 86 1015.0
20260508120004 10 55 3.2 9.7 0.00 0.43 0.10 85 1015.2
20260508115403 10 59 3.2 11.3 0.00 0.46 0.10 82 1014.9
20260508114503 10 98 1.6 4.8 0.00 0.46 0.10 82 1015.0
20260508113811 10 85 1.6 6.4 0.00 0.46 0.10 84 1014.9
20260508112703 10 154 0.0 3.2 0.00 0.48 0.10 80 1015.1
20260508111803 10 158 1.6 4.8 0.00 0.48 0.10 83 1015.1
20260508110903 9 88 1.6 9.7 0.00 0.48 0.10 84 1015.2
20260508110005 10 152 1.6 6.4 0.00 0.51 0.10 82 1015.1
20260508105407 10 166 1.6 6.4 0.00 0.51 0.10 84 1014.9
20260508104711 10 160 1.6 9.7 0.00 0.51 0.10 85 1015.0
20260508103811 9 167 3.2 9.7 0.00 0.53 0.10 86 1014.9
20260508102703 9 156 3.2 11.3 0.00 0.53 0.10 86 1015.1
20260508101803 8 161 1.6 9.7 0.00 0.56 0.10 87 1015.1
20260508101111 8 165 1.6 4.8 0.00 0.61 0.10 88 1015.2
20260508100006 8 149 1.6 6.4 0.00 0.64 0.10 91 1015.3
20260508095611 8 166 1.6 6.4 0.00 0.64 0.10 91 1015.2
20260508094503 8 173 1.6 9.7 0.00 0.66 0.10 90 1015.4
20260508093604 7 154 1.6 4.8 0.00 0.69 0.10 92 1015.4
20260508092703 7 96 3.2 6.4 0.00 0.71 0.10 92 1015.3
20260508091803 7 88 1.6 6.4 0.00 0.71 0.10 92 1015.4
20260508090903 7 80 1.6 6.4 0.00 0.76 0.10 94 1015.4
20260508090212 7 101 1.6 4.8 0.00 0.79 0.10 94 1015.7
20260508085404 7 113 1.6 4.8 0.00 0.81 0.10 96 1015.3
20260508084503 7 72 1.6 6.4 0.00 0.84 0.10 97 1015.6
20260508083603 6 63 3.2 6.4 0.00 0.86 0.10 98 1015.4
20260508082705 6 71 3.2 6.4 0.00 0.89 0.10 99 1015.2
20260508081803 6 66 3.2 9.7 0.00 0.94 0.10 99 1015.2
20260508080905 6 75 1.6 4.8 0.00 0.97 0.10 99 1015.0
20260508080005 6 85 1.6 6.4 0.00 0.99 0.10 99 1015.1
20260508075404 6 87 1.6 6.4 0.00 1.02 0.10 99 1015.2
20260508074519 6 81 1.6 4.8 0.00 1.02 0.10 99 1015.1
20260508073603 6 107 1.6 3.2 0.00 1.04 0.10 99 1015.2
20260508072703 6 99 1.6 4.8 0.00 1.09 0.10 99 1015.0
20260508071804 6 88 1.6 4.8 0.00 1.09 0.10 99 1014.9
20260508070903 6 84 1.6 4.8 0.00 1.12 0.10 99 1015.0
20260508070006 6 67 1.6 6.4 0.00 1.12 0.10 99 1014.9
20260508065403 6 74 1.6 6.4 0.00 1.14 0.10 99 1014.9
20260508064503 6 63 1.6 4.8 0.00 1.17 0.10 99 1014.7
20260508063811 6 81 1.6 6.4 0.00 1.19 0.10 99 1014.7
20260508062705 6 56 3.2 6.4 0.00 1.27 0.10 99 1014.3
20260508061803 6 88 1.6 6.4 0.03 1.30 0.10 99 1014.4
20260508060903 6 64 1.6 6.4 0.03 1.32 0.10 99 1014.2
20260508060212 6 77 1.6 6.4 0.03 1.32 0.10 99 1014.4
20260508055611 6 64 3.2 9.7 0.03 1.35 0.10 99 1014.1
20260508054504 6 107 0.0 4.8 0.03 1.35 0.10 99 1014.2
20260508053811 6 131 0.0 3.2 0.05 1.37 0.10 99 1014.1
20260508052703 6 125 0.0 3.2 0.10 1.42 0.10 99 1014.2
20260508051804 6 112 0.0 3.2 0.05 1.42 0.05 99 1014.1
20260508050903 6 109 0.0 3.2 0.05 1.42 0.05 99 1013.8
20260508050004 6 86 1.6 6.4 0.05 1.42 0.05 99 1014.0
20260508045403 6 85 1.6 6.4 0.05 1.42 0.05 99 1013.7
20260508044519 6 114 1.6 4.8 0.05 1.42 0.05 99 1013.8
20260508043604 6 103 0.0 3.2 0.03 1.37 0.03 99 1013.9
20260508042703 6 105 0.0 4.8 0.00 1.35 0.00 99 1013.6
20260508041803 6 104 1.6 4.8 0.00 1.35 0.00 99 1013.3
20260508041111 6 90 1.6 4.8 0.00 1.37 0.00 99 1013.8
20260508040005 6 101 1.6 4.8 0.00 1.37 0.00 99 1013.6
20260508035405 6 92 1.6 4.8 0.00 1.37 0.00 99 1013.6
20260508034504 6 78 0.0 4.8 0.00 1.37 0.00 99 1013.3
20260508033811 6 127 0.0 1.6 0.00 1.37 0.00 99 1013.5
20260508032718 6 102 0.0 3.2 0.00 1.37 0.00 99 1013.3
20260508031804 6 111 0.0 3.2 0.00 1.37 0.00 99 1013.6
20260508030903 6 0 0.0 0.0 0.00 1.37 0.00 99 1013.5
20260508030005 6 112 0.0 1.6 0.00 1.37 0.00 99 1013.3
20260508025403 6 112 0.0 1.6 0.00 1.37 0.00 99 1013.3
20260508024503 6 130 0.0 1.6 0.00 1.37 0.00 99 1013.5
20260508023811 6 0 0.0 0.0 0.00 1.37 0.00 99 1013.7
20260508022703 6 0 0.0 0.0 0.00 1.37 0.00 99 1013.5
20260508022010 6 0 0.0 0.0 0.00 1.37 0.00 99 1013.5
20260508021111 6 0 0.0 0.0 0.00 1.37 0.00 99 1013.6
20260508020004 6 0 0.0 0.0 0.00 1.37 0.00 99 1013.6
20260508015403 6 0 0.0 0.0 0.00 1.37 0.00 99 1013.5
20260508014504 6 0 0.0 0.0 0.00 1.42 0.00 99 1013.3
20260508013603 6 0 0.0 0.0 0.00 1.45 0.00 99 1013.7
20260508012703 6 0 0.0 0.0 0.00 1.45 0.00 99 1013.5
20260508011803 6 122 0.0 1.6 0.00 1.45 0.00 99 1013.6
20260508010903 6 85 0.0 3.2 0.00 1.47 0.00 99 1013.7
20260508010005 6 62 1.6 4.8 0.00 1.47 0.00 99 1013.5
20260508005403 6 0 0.0 0.0 0.00 1.47 0.00 99 1013.6
20260508004503 6 132 0.0 1.6 0.00 1.47 0.00 99 1013.5
20260508003811 6 136 0.0 1.6 0.00 1.47 0.00 99 1013.6
20260508002718 6 0 0.0 0.0 0.00 1.47 0.00 99 1013.6
20260508001803 6 83 0.0 1.6 0.00 1.47 0.00 99 1013.7
20260508000903 6 106 0.0 1.6 0.00 1.47 0.00 99 1013.7
20260508000019 6 98 0.0 3.2 0.00 1.47 0.00 99 1013.7
20260507235403 6 66 0.0 3.2 0.00 1.47 0.00 99 1013.6
20260507234503 6 97 0.0 3.2 0.00 1.47 0.00 99 1013.8
20260507233603 6 97 0.0 3.2 0.00 1.47 0.00 99 1013.6
20260507232703 6 103 1.6 4.8 0.00 1.47 0.00 99 1013.8
20260507231803 6 120 0.0 1.6 0.00 1.47 0.00 99 1013.9
20260507230903 6 101 0.0 4.8 0.00 1.47 0.00 99 1014.0
20260507230212 6 0 0.0 0.0 0.00 1.47 0.00 99 1013.9
20260507225403 6 0 0.0 0.0 0.00 1.47 0.00 99 1013.6
20260507224504 6 115 0.0 3.2 0.00 1.47 0.00 99 1013.5
20260507223603 6 0 0.0 0.0 0.00 1.47 0.00 99 1013.6
20260507222703 6 0 0.0 0.0 0.00 1.47 0.00 99 1013.3
20260507221805 6 0 0.0 0.0 0.00 1.47 0.00 99 1013.7
20260507220904 6 131 0.0 1.6 0.00 1.47 0.00 99 1013.9
20260507220009 6 88 0.0 3.2 0.00 1.47 0.00 99 1013.7
20260507215403 6 82 1.6 4.8 0.00 1.47 1.47 99 1013.8
20260507214503 6 103 0.0 1.6 0.00 1.47 1.47 99 1013.7
20260507213603 6 110 0.0 1.6 0.00 1.47 1.47 99 1013.8
20260507212703 6 98 1.6 4.8 0.00 1.47 1.47 99 1013.7
20260507211804 6 87 0.0 3.2 0.00 1.47 1.47 99 1013.7
20260507210903 6 120 0.0 1.6 0.00 1.47 1.47 99 1013.7
20260507210005 6 124 0.0 1.6 0.00 1.47 1.47 99 1013.6
20260507205611 6 125 0.0 1.6 0.00 1.47 1.47 99 1013.8
20260507204504 6 106 0.0 3.2 0.00 1.47 1.47 99 1013.6
20260507203604 6 98 0.0 4.8 0.00 1.47 1.47 99 1013.6
20260507202919 6 88 0.0 3.2 0.00 1.47 1.47 99 1013.5
20260507201803 6 67 0.0 4.8 0.00 1.47 1.47 99 1013.2
20260507200905 6 102 0.0 1.6 0.00 1.47 1.47 99 1013.2
20260507200004 6 150 0.0 1.6 0.00 1.47 1.47 99 1013.2
20260507195404 6 123 0.0 3.2 0.00 1.47 1.47 99 1013.2
20260507194503 6 123 0.0 1.6 0.00 1.47 1.47 99 1013.0
20260507193603 6 0 0.0 0.0 0.00 1.47 1.47 99 1013.0
20260507192704 6 149 0.0 1.6 0.00 1.47 1.47 99 1013.0
20260507191803 6 133 0.0 1.6 0.00 1.47 1.47 99 1013.1
20260507190907 6 109 0.0 3.2 0.00 1.47 1.47 99 1013.0
20260507190006 6 127 0.0 1.6 0.00 1.47 1.47 99 1013.0
20260507185405 6 120 0.0 1.6 0.00 1.47 1.47 99 1012.7
20260507184711 6 83 1.6 4.8 0.00 1.47 1.47 99 1012.7
20260507183605 6 78 1.6 6.4 0.00 1.47 1.47 99 1012.5
20260507182703 6 105 0.0 4.8 0.00 1.47 1.47 99 1012.5
20260507181805 6 123 0.0 3.2 0.00 1.47 1.47 99 1012.5
20260507180903 6 101 1.6 3.2 0.00 1.47 1.47 99 1012.6
20260507180009 6 106 0.0 3.2 0.00 1.47 1.47 99 1012.4
20260507175403 6 90 1.6 4.8 0.00 1.47 1.47 99 1012.6
20260507174503 6 95 1.6 4.8 0.00 1.47 1.47 99 1012.2
20260507173603 6 88 1.6 6.4 0.00 1.47 1.47 99 1012.2
20260507172704 6 114 0.0 3.2 0.00 1.47 1.47 99 1012.2
20260507171805 6 109 0.0 3.2 0.00 1.47 1.47 99 1012.1
20260507170904 6 110 0.0 3.2 0.00 1.50 1.47 99 1012.0
20260507170211 6 127 0.0 1.6 0.00 1.52 1.47 99 1012.1
20260507165404 6 102 0.0 3.2 0.00 1.55 1.47 99 1011.8
20260507164503 6 78 1.6 6.4 0.00 1.60 1.47 99 1011.9
20260507163603 6 82 1.6 6.4 0.00 1.65 1.47 99 1012.0
20260507162704 7 82 1.6 4.8 0.00 1.65 1.47 99 1011.6
20260507161804 7 75 1.6 4.8 0.00 1.65 1.47 99 1011.6
20260507161111 7 88 1.6 4.8 0.00 1.65 1.47 99 1011.7
20260507160005 6 89 1.6 4.8 0.03 1.65 1.47 99 1011.8
20260507155403 6 71 1.6 4.8 0.03 1.65 1.47 99 1011.7
20260507154505 6 75 1.6 4.8 0.05 1.65 1.47 99 1011.5
20260507153604 6 68 3.2 9.7 0.05 1.65 1.47 99 1011.5
20260507152703 7 69 3.2 6.4 0.10 1.78 1.47 99 1011.3
20260507151803 7 71 1.6 6.4 0.15 1.93 1.47 99 1011.5
20260507150903 7 117 1.6 4.8 0.15 2.11 1.45 99 1011.4
20260507150004 7 60 3.2 9.7 0.18 2.13 1.45 99 1011.2
20260507145403 7 56 3.2 9.7 0.20 2.13 1.45 99 1011.5
20260507144503 7 92 1.6 6.4 0.18 2.11 1.42 99 1011.2
20260507143810 7 85 3.2 11.3 0.18 2.11 1.42 99 1011.2
20260507142911 7 81 1.6 9.7 0.15 2.06 1.37 99 1011.3
20260507141803 7 106 1.6 4.8 0.10 2.01 1.32 99 1011.1
20260507140903 7 120 0.0 3.2 0.05 1.98 1.30 99 1011.0
20260507140006 7 120 0.0 4.8 0.05 1.96 1.27 99 1010.7
20260507135403 7 97 1.6 4.8 0.03 1.93 1.22 99 1011.0
20260507134503 6 64 3.2 9.7 0.03 1.93 1.22 99 1011.1
20260507133814 6 70 3.2 12.9 0.03 1.93 1.22 99 1010.8
20260507132704 7 103 1.6 4.8 0.05 1.93 1.22 99 1010.8
20260507132011 7 109 1.6 4.8 0.05 1.93 1.22 99 1010.6
20260507130906 7 80 1.6 6.4 0.10 1.93 1.22 99 1010.7
20260507130005 7 96 1.6 3.2 0.05 1.88 1.19 99 1010.5
20260507125403 7 92 1.6 6.4 0.10 1.88 1.19 99 1010.3